Ishigakijima, Japan

6:40 PM JST on July 25, 2017 (GMT +0900)
Ishigaki

Weather History for ROIG - September, 2013

Change the Weather History Date:

Saturday, September 28, 2013

  Actual Average Record
Temperature  
Mean Temperature 82 °F -  
Max Temperature 88 °F 83 °F 89 °F (2011)
Min Temperature 77 °F 73 °F 73 °F (1997)
Cooling Degree Days 17    
Growing Degree Days 32 (Base 50)    
Moisture  
Dew Point 74 °F    
Average Humidity 74    
Maximum Humidity 94    
Minimum Humidity 61    
Precipitation  
Precipitation 0.04 in 0.23 in - ()
Sea Level Pressure  
Sea Level Pressure 29.80 in    
Wind  
Wind Speed 5 mph ()    
Max Wind Speed 8 mph    
Max Gust Speed -    
Visibility 8.3 miles    
Events Rain    
Averages and records for this station are not official NWS values.
T = Trace of Precipitation, MM = Missing Value Source: Averaged Metar Reports

Daily Weather History Graph

Daily Weather History Graph

Search for Another Location

Airport or City:

Trip Planner

Search our weather history database for the weather conditions in past years. The results will help you decide how hot, cold, wet, or windy it might be!

Date:

Astronomy

Sep. 28, 2013 Rise Set
Actual Time 6:34 AM JST 6:33 PM JST
Civil Twilight 6:11 AM JST 6:56 PM JST
Nautical Twilight 5:44 AM JST 7:22 PM JST
Astronomical Twilight 5:18 AM JST 7:49 PM JST
Moon 12:24 AM JST (9/28) 1:56 PM JST (9/28)
Length of Visible Light 12h 45m
Length of Day
11h 59m
Last Quarter, 41% of the Moon is Illuminated
Sep 28
Last Quarter
Oct 5
New
Oct 12
First Quarter
Oct 19
Full
Oct 27
Last Quarter

Hourly Weather History & Observations

Time (JST) Temp. Heat Index Dew Point Humidity Pressure Visibility Wind Dir Wind Speed Gust Speed Precip Events Conditions
12:00 AM 79 °F - 72 °F 72% 29.88 in - North 5.8 mph - -  
3:00 AM 78 °F - 72 °F 78% 29.83 in 12 mi NNE 5.8 mph - -   Scattered Clouds
6:00 AM 78 °F - 73 °F 81% 29.82 in 12 mi NE 4.6 mph - -   Scattered Clouds
6:00 AM 75.2 °F - 71.6 °F 89% 29.80 in 6.2 mi Variable 2.3 mph - N/A   Partly Cloudy
7:00 AM 73.4 °F - 71.6 °F 94% 29.80 in 6.2 mi NW 2.3 mph - N/A   Partly Cloudy
8:00 AM 80.6 °F 85.4 °F 73.4 °F 79% 29.80 in 6.2 mi NE 3.5 mph - N/A   Partly Cloudy
9:00 AM 84 °F - 75 °F 67% 29.84 in 12 mi East 3.5 mph - -   Scattered Clouds
9:00 AM 82.4 °F 88.2 °F 73.4 °F 74% 29.83 in 6.2 mi ENE 3.5 mph - N/A   Partly Cloudy
10:00 AM 84.2 °F 90.9 °F 73.4 °F 70% 29.83 in 6.2 mi East 5.8 mph - N/A   Partly Cloudy
11:00 AM 84.2 °F 90.9 °F 73.4 °F 70% 29.83 in 6.2 mi East 5.8 mph - N/A   Partly Cloudy
12:00 PM 86 °F - 75 °F 64% 29.82 in 16 mi SE 8.1 mph - -   Scattered Clouds
12:00 PM 84.2 °F 89.6 °F 71.6 °F 66% 29.80 in 6.2 mi East 6.9 mph - N/A   Partly Cloudy
1:00 PM 84.2 °F 90.9 °F 73.4 °F 70% 29.77 in 6.2 mi ENE 6.9 mph - N/A   Partly Cloudy
2:00 PM 86.0 °F 93.4 °F 73.4 °F 66% 29.77 in 6.2 mi East 4.6 mph - N/A   Partly Cloudy
3:00 PM 87 °F - 75 °F 61% 29.77 in 12 mi SE 8.1 mph - -   Scattered Clouds
3:00 PM 86.0 °F 95.1 °F 75.2 °F 70% 29.74 in 6.2 mi ESE 6.9 mph - N/A   Partly Cloudy
4:00 PM 84.2 °F 90.9 °F 73.4 °F 70% 29.77 in 6.2 mi East 4.6 mph - N/A   Partly Cloudy
5:00 PM 82.4 °F 88.2 °F 73.4 °F 74% 29.77 in 6.2 mi ENE 4.6 mph - N/A   Scattered Clouds
6:00 PM 85 °F - 76 °F 67% 29.79 in 16 mi ENE 4.6 mph - -   Partly Cloudy
6:00 PM 82.4 °F 88.2 °F 73.4 °F 74% 29.77 in 6.2 mi ENE 5.8 mph - N/A   Scattered Clouds
7:00 PM 80.6 °F 85.4 °F 73.4 °F 79% 29.77 in 6.2 mi NNE 4.6 mph - N/A   Scattered Clouds
8:00 PM 78.8 °F - 73.4 °F 83% 29.80 in 6.2 mi NNE 5.8 mph - N/A   Scattered Clouds
9:00 PM 82 °F - 76 °F 79% 29.83 in 9 mi NE 6.9 mph - - Rain Light Rain Showers